Location: Losili
(4.4086°N, 32.7049°E)
Time: 03:22:47
(UTC+00:00)

Orbus 7S - Pass Details

Date: 18 September 2019
Orbit: 348 x 11884 km, 27.2° (Epoch: 20 October)

Event Time Altitude Azimuth Distance (km) Brightness Sun altitude
Rises 16:46:12 0° 295° (WNW) 4,597 9.3 -15.5°
Reaches altitude 10° 16:50:34 10° 291° (WNW) 2,569 7.9 -16.6°
Maximum altitude 16:55:24 53° 214° (SSW) 578 3.5 -17.8°
Enters shadow 16:56:21 35° 155° (SSE) 700 3.6 -18.0°
